Location: Sotillo de Rioja
(42.4613°N, 3.0893°W)
Time: 04:22:31
(UTC+00:00)

Daily predictions for brighter satellites

Satellite Brightness Start Highest point End
(mag) Time Altitude Azimuth Time Altitude Azimuth Time Altitude Azimuth
FALCON 9 R/B 4.2 04:12:45 17° SSE 04:12:45 17° SSE 04:13:50 10° SE
H-2A R/B 4.4 04:15:50 39° SSW 04:18:36 45° SSE 05:27:24 10° ESE
Cosmos 2278 Rocket 3.6 04:43:00 25° NNE 04:45:23 35° ENE 04:50:32 10° ESE
Atlas Centaur 2 4.2 04:45:10 25° S 04:47:19 28° SSE 04:54:08 10° ESE
USA 215 4.4 04:45:45 10° NE 04:50:54 27° N 04:50:54 27° N
Cosmos 2237 Rocket 3.6 04:49:36 10° S 04:54:41 36° ESE 04:59:49 10° NE
Cosmos 2219 Rocket 2.9 04:59:59 42° N 04:59:59 42° N 05:03:42 10° NNE
Cosmos 2333 Rocket 3.1 05:02:50 37° N 05:02:50 37° N 05:06:22 10° NNE
IRIDIUM 104 4.3 04:58:10 10° S 05:03:23 82° E 05:08:38 10° N
SL-8 R/B 4.1 05:04:16 58° NE 05:04:16 58° NE 05:08:33 10° ESE
CZ-4B R/B 4.5 05:02:02 10° NE 05:05:17 30° E 05:08:34 10° SSE
Lacrosse 5 rocket 3.2 05:06:23 23° NE 05:06:23 23° NE 05:09:05 10° E
NOSS 0 Rocket 4.3 05:02:57 10° S 05:09:02 64° ESE 05:15:09 10° NNE
IRIDIUM 114 4.1 05:07:18 10° S 05:12:31 83° W 05:17:46 10° N
OAO 2 Rocket 4.3 05:12:49 34° S 05:12:51 34° S 05:17:17 10° ESE
Cosmos 540 Rocket 4.2 05:08:11 10° S 05:13:06 51° ESE 05:18:05 10° NNE
COSMO-SKYMED 1 2.8 05:12:32 10° SSE 05:16:50 67° ENE 05:17:53 48° NNE
Lacrosse 4 Rocket 4.2 05:15:04 10° SSE 05:17:57 18° ESE 05:20:53 10° ENE
COSMOS 2428 2.8 05:21:26 53° NW 05:21:26 53° NW 05:26:34 10° NNE
Cosmos 990 Rocket 3.8 05:21:08 72° W 05:21:20 73° WSW 05:26:26 10° S
IRIDIUM 103 4.2 05:16:29 10° S 05:21:40 68° W 05:26:53 10° N
Cosmos 1513 Rocket 4.4 05:15:55 10° S 05:22:14 90° ESE 05:28:30 10° N
SL-4 R/B 4.0 05:25:00 15° S 05:27:02 24° SE 05:30:14 10° ENE
Cosmos 1980 3.9 05:21:59 10° SSW 05:27:37 72° ESE 05:33:15 10° NNE
ADEOS 3.5 05:23:24 10° N 05:28:33 62° WNW 05:29:54 46° SW
Cosmos 2360 Rocket 4.2 05:31:43 13° NNW 05:31:43 13° NNW 05:32:43 10° N
CZ-4B R/B 3.8 05:27:06 10° S 05:27:43 15° S 05:27:43 15° S
Cosmos 1891 Rocket 4.3 05:25:14 10° SSW 05:31:25 75° W 05:37:32 10° N
Cosmos 1544 Rocket 3.6 05:28:25 10° S 05:32:43 75° E 05:37:03 10° NNE
BREEZE M DEB (TANK) 3.9 05:33:25 16° SE 05:33:47 16° SE 05:35:34 10° E
Cosmos 1464 Rocket 3.8 05:29:12 10° SSW 05:35:19 77° W 05:41:29 10° N
ERS-2 2.2 05:32:22 10° SSE 05:36:00 76° ENE 05:36:47 52° N
Meteor 2-10 4.2 05:31:22 10° SSW 05:36:54 57° WNW 05:42:19 10° N
Meteor PRIRODA 3.6 05:35:44 10° NNE 05:39:22 79° ESE 05:42:59 10° S
IRIDIUM 106 4.5 05:35:03 10° SSW 05:40:02 46° W 05:45:04 10° N
Cosmos 858 Rocket 4.4 05:37:25 25° NNW 05:40:34 83° WSW 05:45:47 10° SSE
Cosmos 1072 Rocket 4.4 05:34:30 10° SSW 05:40:38 64° W 05:46:54 10° N
SKYMED 3 4.4 05:36:31 10° S 05:40:49 67° W 05:42:10 42° NW
Cosmos 1763 Rocket 3.7 05:42:48 44° W 05:43:17 45° WNW 05:48:18 10° N
Okean 1-7 Rocket 3.5 05:46:14 24° NNW 05:48:49 62° W 05:53:14 10° S
Cosmos 1908 3.4 05:45:56 10° S 05:49:42 70° E 05:53:30 10° NNE
Cosmos 841 Rocket 3.3 05:45:03 10° SSW 05:50:09 79° WNW 05:55:21 10° NNE
Cosmos 1953 2.1 05:48:22 10° SSW 05:52:19 68° W 05:56:18 10° N
Cosmos 1626 Rocket 3.7 05:48:10 10° N 05:52:39 76° E 05:57:07 10° SSE
CZ-2C R/B 3.1 05:51:45 16° SSW 05:53:50 24° S 05:57:06 10° ESE
Chandra Rocket (1) 4.3 05:53:15 10° SW 05:54:36 11° SSW 05:55:43 10° S
Cosmos 1898 Rocket 3.8 05:53:08 34° WNW 05:54:39 42° WSW 05:59:30 10° S
ATLAS CENTAUR R/B 2.8 05:52:07 10° S 05:55:30 34° ESE 05:58:52 10° NE
Meteor 1-16 Rocket 4.3 05:53:14 10° S 05:59:07 87° WNW 06:05:06 10° N
Cosmos 1455 Rocket 3.6 05:59:58 34° WNW 05:59:58 34° WNW 06:03:31 10° N
BREEZE-M DEB (TANK) 3.1 05:55:17 22° WNW 06:00:55 87° SSW 06:04:13 10° ESE
H-2A R/B 4.3 05:57:41 10° NNE 06:01:51 36° E 06:06:01 10° SSE
Cosmos 1092 Rocket 4.2 05:58:04 10° N 06:04:13 73° E 06:10:23 10° SSE
SKYMED 2 4.1 06:00:56 10° SSW 06:04:56 36° W 06:06:28 27° NW
Cosmos 1570 Rocket 3.9 06:03:03 10° SSW 06:08:14 67° WNW 06:13:28 10° NNE
USA 307 4.0 06:07:22 10° SSW 06:11:24 45° SE 06:15:26 10° ENE
Cosmos 2034 Rocket 4.1 06:07:15 10° SSW 06:13:29 56° WNW 06:19:45 10° N
deb Chang Zheng 4 4.1 06:10:06 10° N 06:13:57 34° WNW 06:17:46 10° SW
Cosmos 1758 Rocket 4.4 06:10:59 10° N 06:15:24 53° E 06:19:45 10° SSE
Cosmos 1340 2.5 06:12:58 10° NNW 06:16:43 70° W 06:20:27 10° S
SAR-Lupe-4 4.0 06:14:49 10° S 06:18:13 41° W 06:20:45 16° NW
PSLV R/B 4.2 06:15:22 10° S 06:19:17 45° W 06:23:17 10° NNW
Cosmos 1461 4.2 06:18:28 22° WNW 06:19:57 26° NW 06:23:57 10° NNE
Nadezhda 4 Rocket 4.1 06:14:07 10° NNW 06:20:00 52° W 06:25:53 10° SSW
USA 308 3.6 06:16:01 10° SSW 06:20:08 53° SE 06:24:15 10° ENE
USA 305 3.5 06:16:03 10° SW 06:20:11 56° SE 06:24:21 10° ENE
Cosmos 2369 Rocket 4.3 06:18:47 10° N 06:23:09 23° NE 06:27:29 10° ESE
Gbstr 26 Del rocket 4.5 06:16:54 10° WSW 06:24:28 84° NNW 06:32:41 10° NE
FALCON 9 DEB 3.9 06:23:27 24° WNW 06:24:45 33° NNW 06:27:54 10° NE
Okean O Rocket 2.9 06:21:01 10° NNE 06:25:11 43° E 06:29:19 10° S
Cosmos 372 Rocket 4.0 06:21:25 10° NNW 06:26:37 61° WSW 06:31:44 10° S
SL-16 R/B 2.5 06:21:03 10° SSW 06:26:39 72° ESE 06:32:19 10° NNE
Meteor 1-11 4.4 06:21:07 10° N 06:26:44 78° E 06:32:18 10° SSE
Cosmos 1937 Rocket 4.3 06:23:57 14° NW 06:27:36 30° W 06:32:06 10° SSW
Cosmos 1634 Rocket 4.0 06:22:29 10° S 06:28:39 89° E 06:34:52 10° N
Cosmos 1703 3.5 06:25:23 10° NNW 06:29:07 45° W 06:32:50 10° SSW
Cosmos 1125 Rocket 4.3 06:23:59 10° N 06:29:12 53° ENE 06:34:23 10° SE
Cosmos 2278 Rocket 2.8 06:24:53 13° NW 06:29:25 36° WSW 06:34:31 10° S
Cosmos 2208 Rocket 4.2 06:24:13 10° SW 06:29:32 55° WNW 06:34:53 10° NNE
Cosmos 1814 Rocket 4.1 06:24:37 10° SW 06:29:35 48° WNW 06:34:33 10° N
CZ-4B R/B 4.0 06:25:17 10° NNE 06:30:53 57° ESE 06:36:21 10° S
NOAA 12 4.4 06:26:18 10° NNE 06:31:35 71° ESE 06:36:52 10° S
Cosmos 44 Rocket 4.1 06:28:12 15° NW 06:31:53 36° WSW 06:36:34 10° S
USA 306 3.2 06:27:50 10° SW 06:32:04 70° SE 06:36:18 10° NE
Cosmos 1943 Rocket 3.4 06:26:54 10° NNW 06:32:16 42° ENE 06:37:37 10° SE
Envisat 3.0 06:28:01 10° N 06:33:00 56° WNW 06:37:57 10° SSW
Cosmos 1602 Rocket 3.7 06:28:58 10° NNW 06:33:19 53° W 06:37:39 10° S
CZ-2C R/B 2.7 06:28:29 10° SSE 06:33:41 81° ENE 06:39:01 10° N
Atlas Centaur 2 4.2 06:29:00 10° WSW 06:36:09 35° S 06:43:39 10° ESE
H-2A R/B 3.7 06:34:30 10° NNW 06:37:33 25° WNW 06:40:37 10° SW
Cosmos 1346 Rocket 2.9 06:33:57 10° N 06:37:56 79° E 06:41:55 10° SSE
Cosmos 2237 Rocket 2.8 06:33:33 10° WSW 06:38:42 35° WNW 06:43:55 10° N
CZ-4B R/B 4.1 06:37:45 10° NNW 06:40:10 17° WNW 06:42:38 10° WSW
Cosmos 1689 Rocket 3.5 06:38:23 10° SW 06:40:31 19° W 06:41:40 15° WNW
NOAA 6 4.0 06:37:20 10° N 06:42:29 65° WNW 06:47:35 10° SSW
PAYLOAD B 4.2 06:37:01 10° NNE 06:42:38 83° WNW 06:48:13 10° SSW
AQUARIUS 4.3 06:38:07 10° NNE 06:42:38 84° ESE 06:47:08 10° SSW
GEOS 3 Rocket 4.3 06:38:12 10° S 06:43:07 37° WSW 06:48:07 10° NW
Cosmos 2219 Rocket 3.9 06:41:45 12° WNW 06:43:08 13° NW 06:45:32 10° NNW
ATLAS 5 CENTAUR R/B 3.1 06:42:19 14° W 06:44:14 23° SW 06:49:06 10° S
Lacrosse 5 rocket 1.3 06:42:01 13° NW 06:45:19 53° SW 06:48:54 10° SSE
SL-8 R/B 4.4 06:42:14 13° WNW 06:46:12 40° SW 06:50:41 10° SSE
Cosmos 2333 Rocket 4.0 06:44:53 10° NW 06:46:17 11° NW 06:48:02 10° NNW
Spot 2 4.0 06:44:56 10° N 06:48:53 54° WNW 06:52:51 10° SSW
YAOGAN 6 3.6 06:45:57 10° NNW 06:49:07 27° WNW 06:52:15 10° SW
SMAP 3.0 06:45:52 10° N 06:50:32 73° WNW 06:55:10 10° SSW
Cosmos 1825 Rocket 3.6 06:46:04 10° N 06:50:33 88° W 06:55:01 10° S
Meteor 2-19 Rocket 4.4 06:45:52 10° N 06:52:02 80° W 06:58:06 10° S
COSMO-SKYMED 1 4.5 06:52:05 10° WSW 06:53:26 11° W 06:54:47 10° WNW
Cosmos 1939 Rocket 3.6 06:50:14 10° NNE 06:54:07 57° E 06:57:55 10° S
Lacrosse 4 Rocket 1.8 06:52:14 10° SW 06:56:16 43° NW 07:00:26 10° NNE
Cosmos 2026 Rocket 4.1 06:50:41 10° NNW 06:56:54 58° W 07:03:07 10° S
FengYun 1-2 T 4.5 06:51:13 10° NNE 06:56:55 83° ESE 07:02:35 10° SSW
NOSS 3-2 (A) 3.3 06:53:28 10° SW 06:59:03 67° NW 07:05:29 10° NNE
CORIOLIS 4.1 06:53:42 10° NNE 06:59:04 83° WNW 07:04:25 10° SSW
Cosmos 1400 Rocket 4.0 06:56:28 10° SW 06:59:43 22° WNW 07:03:00 10° NNW
Cosmos 2297 3.8 06:56:47 10° NNW 07:02:33 75° WSW 07:08:16 10° SSE
Cosmos 1300 3.0 07:01:27 10° SSW 07:05:05 42° WNW 07:08:44 10° N
